| time (UTC) | temp F | wind direction | speed MPH | gust MPH | rain 1hr in | rain 24hr in | rain mn in | humidity % | barometer mb |
| 20260503213058 | 84 | 194 | 1.0 | 5.0 | 0.00 | 0.00 | 0.00 | 36 | 1011.8 |
| 20260503211554 | 85 | 108 | 0.0 | 4.0 | 0.00 | 0.00 | 0.00 | 37 | 1011.9 |
| 20260503210054 | 84 | 171 | 0.0 | 3.0 | 0.00 | 0.00 | 0.00 | 37 | 1012.1 |
| 20260503204558 | 82 | 0 | 0.0 | 4.0 | 0.00 | 0.00 | 0.00 | 40 | 1012.3 |
| 20260503203059 | 81 | 39 | 0.0 | 2.0 | 0.00 | 0.00 | 0.00 | 38 | 1012.6 |
| 20260503201558 | 79 | 0 | 1.0 | 3.0 | 0.00 | 0.00 | 0.00 | 41 | 1012.8 |
| 20260503200053 | 78 | 0 | 1.0 | 4.0 | 0.00 | 0.00 | 0.00 | 43 | 1012.9 |
| 20260503194554 | 76 | 139 | 1.0 | 3.0 | 0.00 | 0.00 | 0.00 | 44 | 1013.2 |
| 20260503193111 | 75 | 0 | 0.0 | 4.0 | 0.00 | 0.00 | 0.00 | 45 | 1013.4 |
| 20260503191558 | 74 | 37 | 2.0 | 4.0 | 0.00 | 0.00 | 0.00 | 46 | 1013.6 |
| 20260503190111 | 74 | 163 | 0.0 | 5.0 | 0.00 | 0.00 | 0.00 | 50 | 1013.8 |
| 20260503184556 | 72 | 0 | 0.0 | 1.0 | 0.00 | 0.00 | 0.00 | 53 | 1013.9 |
| 20260503183114 | 71 | 0 | 0.0 | 2.0 | 0.00 | 0.00 | 0.00 | 54 | 1014.0 |
| 20260503181559 | 71 | 0 | 0.0 | 2.0 | 0.00 | 0.00 | 0.00 | 58 | 1014.1 |
| 20260503180100 | 69 | 33 | 1.0 | 5.0 | 0.00 | 0.00 | 0.00 | 58 | 1014.1 |
| 20260503174556 | 68 | 37 | 0.0 | 4.0 | 0.00 | 0.00 | 0.00 | 62 | 1014.2 |
| 20260503173112 | 67 | 0 | 0.0 | 4.0 | 0.00 | 0.00 | 0.00 | 65 | 1014.4 |
| 20260503171554 | 66 | 36 | 0.0 | 4.0 | 0.00 | 0.00 | 0.00 | 65 | 1014.3 |
| 20260503150106 | 55 | 0 | 0.0 | 1.0 | 0.00 | 0.00 | 0.00 | 83 | 1014.9 |
| 20260503140113 | 52 | 0 | 0.0 | 0.0 | 0.00 | 0.00 | 0.00 | 85 | 1014.7 |
| 20260503100107 | 53 | 0 | 0.0 | 0.0 | 0.00 | 0.00 | 0.00 | 84 | 1014.9 |
| 20260503081606 | 55 | 0 | 0.0 | 0.0 | 0.00 | 0.00 | 0.00 | 79 | 1015.1 |
| 20260503071606 | 57 | 0 | 0.0 | 0.0 | 0.00 | 0.00 | 0.00 | 75 | 1015.1 |
| 20260503054552 | 59 | 0 | 0.0 | 0.0 | 0.00 | 0.00 | 0.00 | 72 | 1014.7 |
| 20260503053057 | 60 | 0 | 0.0 | 1.0 | 0.00 | 0.00 | 0.00 | 70 | 1014.7 |
| 20260503051600 | 60 | 0 | 0.0 | 0.0 | 0.00 | 0.00 | 0.00 | 70 | 1014.6 |
| 20260503050055 | 61 | 0 | 0.0 | 0.0 | 0.00 | 0.00 | 0.00 | 69 | 1014.7 |
| 20260503044552 | 62 | 0 | 0.0 | 0.0 | 0.00 | 0.00 | 0.00 | 67 | 1014.6 |
| 20260503043054 | 62 | 0 | 0.0 | 0.0 | 0.00 | 0.00 | 0.00 | 68 | 1014.6 |
| 20260503041548 | 63 | 0 | 0.0 | 0.0 | 0.00 | 0.00 | 0.00 | 66 | 1014.5 |
| 20260503040052 | 64 | 0 | 0.0 | 0.0 | 0.00 | 0.00 | 0.00 | 64 | 1014.5 |
| 20260503034551 | 65 | 0 | 0.0 | 0.0 | 0.00 | 0.00 | 0.00 | 66 | 1014.1 |
| 20260503033052 | 67 | 0 | 0.0 | 0.0 | 0.00 | 0.00 | 0.00 | 62 | 1013.9 |
| 20260503031552 | 69 | 0 | 0.0 | 1.0 | 0.00 | 0.00 | 0.00 | 57 | 1013.7 |
| 20260503030056 | 70 | 0 | 0.0 | 2.0 | 0.00 | 0.00 | 0.00 | 56 | 1013.7 |
| 20260503024602 | 72 | 0 | 0.0 | 8.0 | 0.00 | 0.00 | 0.00 | 53 | 1013.4 |
| 20260503023057 | 73 | 0 | 1.0 | 4.0 | 0.00 | 0.00 | 0.00 | 50 | 1013.3 |
| 20260503021559 | 75 | 0 | 0.0 | 5.0 | 0.00 | 0.00 | 0.00 | 47 | 1013.4 |
| 20260503020057 | 77 | 44 | 1.0 | 3.0 | 0.00 | 0.00 | 0.00 | 43 | 1013.3 |
| 20260503014621 | 79 | 39 | 0.0 | 3.0 | 0.00 | 0.00 | 0.00 | 45 | 1013.4 |
| 20260503013053 | 80 | 82 | 0.0 | 4.0 | 0.00 | 0.00 | 0.00 | 44 | 1013.3 |
| 20260503011609 | 80 | 0 | 0.0 | 5.0 | 0.00 | 0.00 | 0.00 | 43 | 1013.4 |
| 20260503010058 | 82 | 0 | 1.0 | 5.0 | 0.00 | 0.00 | 0.00 | 41 | 1013.3 |
| 20260503004559 | 82 | 32 | 0.0 | 2.0 | 0.00 | 0.00 | 0.00 | 41 | 1013.4 |
| 20260503003055 | 80 | 41 | 1.0 | 5.0 | 0.00 | 0.00 | 0.00 | 41 | 1013.4 |
| 20260503001554 | 82 | 117 | 0.0 | 3.0 | 0.00 | 0.00 | 0.00 | 41 | 1013.5 |
| 20260503000052 | 81 | 0 | 1.0 | 5.0 | 0.00 | 0.00 | 0.00 | 42 | 1013.6 |
| 20260502234552 | 81 | 44 | 1.0 | 4.0 | 0.00 | 0.00 | 0.00 | 40 | 1013.8 |
| 20260502233054 | 80 | 0 | 0.0 | 4.0 | 0.00 | 0.00 | 0.00 | 43 | 1013.9 |
| 20260502231553 | 81 | 36 | 1.0 | 2.0 | 0.00 | 0.00 | 0.00 | 41 | 1014.2 |
| 20260502230056 | 79 | 28 | 1.0 | 5.0 | 0.00 | 0.00 | 0.00 | 42 | 1014.3 |
| 20260502224604 | 80 | 40 | 1.0 | 6.0 | 0.00 | 0.00 | 0.00 | 43 | 1014.6 |
| 20260502223054 | 79 | 165 | 0.0 | 5.0 | 0.00 | 0.00 | 0.00 | 45 | 1014.6 |
| 20260502221552 | 77 | 80 | 1.0 | 6.0 | 0.00 | 0.00 | 0.00 | 48 | 1014.8 |
| 20260502220056 | 77 | 39 | 1.0 | 5.0 | 0.00 | 0.00 | 0.00 | 54 | 1015.0 |
| 20260502214554 | 77 | 46 | 2.0 | 7.0 | 0.00 | 0.00 | 0.00 | 50 | 1015.0 |
| 20260502213124 | 76 | 138 | 2.0 | 7.0 | 0.00 | 0.00 | 0.00 | 51 | 1015.1 |